EW1401 Weather Reports


Display with metric or nautical units.
time (UTC)temp
F
wind
direction
speed
MPH
gust
MPH
rain 1hr
in
rain 24hr
in
rain mn
in
humidity
%
barometer
mb
20260506190001 0 0.0 0.0 0.00 0.01 0.01 1024.9
20260506184608 0 0.0 0.0 0.00 0.01 0.01 1024.8
20260506183101 0 0.0 0.0 0.00 0.01 0.01 1024.8
20260506181548 0 0.0 0.0 0.00 0.01 0.01 1024.8
20260506180048 0 0.0 0.0 0.00 0.01 0.01 1024.8
20260506174542 0 0.0 0.0 0.00 0.01 0.01 1024.7
20260506173017 0 0.0 0.0 0.00 0.01 0.01 1024.7
20260506171518 0 0.0 0.0 0.00 0.01 0.01 1024.6
20260506170113 0 0.0 0.0 0.00 0.01 0.01 1024.6
20260506164553 53 116 0.0 2.0 0.00 0.01 0.01 94 1024.5
20260506163101 51 168 0.0 0.0 0.00 0.01 0.01 96 1024.7
20260506161546 50 168 0.0 0.0 0.00 0.01 0.01 97 1024.7
20260506160042 47 119 0.0 5.0 0.00 0.02 0.01 96 1024.6
20260506154536 46 154 0.0 1.0 0.00 0.02 0.01 97 1024.6
20260506153032 45 164 0.0 1.0 0.00 0.02 0.01 97 1024.7
20260506151533 43 163 0.0 2.0 0.00 0.02 0.01 97 1024.7
20260506150011 42 181 0.0 2.0 0.00 0.02 0.01 97 1024.6
20260506144508 42 169 0.0 3.0 0.00 0.02 0.01 97 1024.6
20260506143010 41 177 1.0 3.0 0.00 0.02 0.01 96 1024.6
20260506141546 39 183 1.0 2.0 0.00 0.02 0.01 98 1024.5
20260506140027 38 203 1.0 4.0 0.00 0.05 0.01 98 1024.4
20260506134525 38 185 0.0 3.0 0.00 0.05 0.01 99 1024.4
20260506133013 38 170 1.0 2.0 0.00 0.05 0.01 99 1024.1
20260506131512 37 184 0.0 2.0 0.00 0.05 0.01 99 1024.0
20260506130014 37 182 1.0 3.0 0.00 0.06 0.01 99 1023.8
20260506124509 37 183 0.0 3.0 0.00 0.06 0.01 99 1023.6
20260506123007 37 189 1.0 2.0 0.00 0.06 0.01 99 1023.4
20260506121506 37 162 0.0 3.0 0.00 0.06 0.01 99 1023.3
20260506120004 37 169 1.0 2.0 0.00 0.11 0.01 99 1023.3
20260506114505 37 182 1.0 3.0 0.00 0.11 0.01 99 1023.2
20260506113056 37 184 1.0 2.0 0.01 0.11 0.01 99 1023.2
20260506111555 37 184 1.0 3.0 0.01 0.11 0.01 99 1023.1
20260506110055 36 184 1.0 2.0 0.01 0.16 0.01 98 1023.1
20260506104552 36 180 1.0 2.0 0.01 0.16 0.01 98 1023.0
20260506103054 36 181 0.0 2.0 0.00 0.15 0.00 98 1022.8
20260506101538 36 182 1.0 2.0 0.00 0.15 0.00 98 1022.8
20260506100033 36 184 1.0 2.0 0.00 0.17 0.00 98 1022.7
20260506094533 36 169 0.0 2.0 0.00 0.17 0.00 98 1022.7
20260506093019 36 179 1.0 3.0 0.00 0.17 0.00 98 1022.6
20260506091518 36 184 1.0 3.0 0.00 0.17 0.00 98 1022.6
20260506090019 36 180 1.0 3.0 0.00 0.17 0.00 98 1022.6
20260506084513 36 185 1.0 2.0 0.00 0.17 0.00 98 1022.8
20260506083013 36 179 1.0 3.0 0.00 0.17 0.00 98 1022.8
20260506081510 36 165 0.0 3.0 0.00 0.17 0.00 98 1022.7
20260506073053 37 144 0.0 1.0 0.00 0.18 0.00 98 1022.9
20260506071543 37 131 0.0 1.0 0.00 0.18 0.00 98 1023.0
20260506061501 37 125 0.0 2.0 0.00 0.22 0.00 98 1022.7
20260506044546 37 102 0.0 1.0 0.00 0.25 0.00 97 1022.0
20260506043041 39 102 0.0 0.0 0.00 0.25 0.00 95 1021.9
20260506041538 39 102 0.0 1.0 0.00 0.25 0.00 95 1021.8
20260506040033 38 102 0.0 0.0 0.00 0.25 0.25 96 1021.5
20260506034518 37 102 0.0 1.0 0.00 0.25 0.25 98 1021.2
20260506033019 37 102 0.0 2.0 0.00 0.25 0.25 98 1021.0
20260506031516 37 102 0.0 1.0 0.00 0.25 0.25 98 1020.9
20260506030019 38 102 0.0 1.0 0.00 0.25 0.25 97 1020.7
20260506024612 37 102 0.0 2.0 0.00 0.25 0.25 97 1020.4
20260506023011 38 103 0.0 2.0 0.00 0.25 0.25 97 1020.2
20260506021512 0 0.0 0.0 0.00 0.25 0.25 1019.9
20260506020007 0 0.0 0.0 0.00 0.25 0.25 1019.8
20260506014550 0 0.0 0.0 0.00 0.25 0.25 1019.7
20260506013054 0 0.0 0.0 0.00 0.25 0.25 1019.4
20260506011542 0 0.0 0.0 0.00 0.25 0.25 1019.4
20260506010037 0 0.0 0.0 0.00 0.25 0.25 1019.4
20260506004534 0 0.0 0.0 0.00 0.25 0.25 1019.3
20260506003027 0 0.0 0.0 0.00 0.25 0.25 1019.3
20260506001523 0 0.0 0.0 0.00 0.25 0.25 1019.3
20260506000018 0 0.0 0.0 0.00 0.25 0.25 1019.4
20260505234504 0 0.0 0.0 0.00 0.25 0.25 1019.3
20260505233100 0 0.0 0.0 0.00 0.25 0.25 1019.4
20260505231607 0 0.0 0.0 0.00 0.25 0.25 1019.4
20260505230053 0 0.0 0.0 0.00 0.25 0.25 1019.6
20260505224546 0 0.0 0.0 0.00 0.25 0.25 1019.4
20260505223042 0 0.0 0.0 0.00 0.25 0.25 1019.6
20260505221539 0 0.0 0.0 0.00 0.25 0.25 1019.6
20260505220037 0 0.0 0.0 0.00 0.25 0.25 1019.7
20260505214526 39 72 4.0 10.0 0.00 0.25 0.25 95 1019.7
20260505213018 0 0.0 0.0 0.00 0.25 0.25 1019.9
20260505211511 0 0.0 0.0 0.00 0.25 0.25 1019.9
20260505210007 0 0.0 0.0 0.00 0.25 0.25 1019.9
20260505204502 0 0.0 0.0 0.00 0.25 0.25 1019.7
20260505203059 0 0.0 0.0 0.00 0.25 0.25 1019.9
20260505201556 0 0.0 0.0 0.00 0.25 0.25 1019.9
20260505200058 0 0.0 0.0 0.00 0.25 0.25 1020.0
20260505194533 0 0.0 0.0 0.00 0.25 0.25 1020.0
20260505193029 0 0.0 0.0 0.00 0.25 0.25 1020.0
20260505191525 0 0.0 0.0 0.00 0.25 0.25 1020.1